| time (UTC) | temp C | wind direction | speed KPH | gust KPH | rain 1hr cm | rain 24hr cm | rain mn cm | humidity % | barometer mb |
| 20260509065716 | 21 | 258 | 1.6 | 4.8 | 0.00 | 0.00 | 0.00 | 90 | 985.1 |
| 20260509064736 | 21 | 248 | 1.6 | 8.0 | 0.00 | 0.00 | 0.00 | 90 | 984.8 |
| 20260509063716 | 21 | 227 | 1.6 | 4.8 | 0.00 | 0.00 | 0.00 | 91 | 984.4 |
| 20260509062716 | 21 | 222 | 0.0 | 1.6 | 0.00 | 0.00 | 0.00 | 90 | 984.6 |
| 20260509061716 | 21 | 0.0 | 0.0 | 0.00 | 0.00 | 0.00 | 90 | 985.0 | |
| 20260509060716 | 21 | 0.0 | 0.0 | 0.00 | 0.00 | 0.00 | 89 | 984.7 | |
| 20260509055836 | 21 | 0.0 | 0.0 | 0.00 | 0.00 | 0.00 | 88 | 985.3 | |
| 20260509054716 | 21 | 0.0 | 0.0 | 0.00 | 0.00 | 0.00 | 87 | 985.4 | |
| 20260509053716 | 22 | 268 | 0.0 | 1.6 | 0.00 | 0.00 | 0.00 | 87 | 985.3 |
| 20260509052836 | 22 | 192 | 1.6 | 1.6 | 0.00 | 0.00 | 0.00 | 86 | 985.6 |
| 20260509051716 | 21 | 345 | 0.0 | 1.6 | 0.00 | 0.00 | 0.00 | 88 | 986.2 |
| 20260509050716 | 21 | 349 | 0.0 | 1.6 | 0.00 | 0.00 | 0.00 | 87 | 985.5 |
| 20260509045716 | 21 | 189 | 0.0 | 1.6 | 0.00 | 0.00 | 0.00 | 86 | 984.7 |
| 20260509044716 | 21 | 0.0 | 0.0 | 0.00 | 0.00 | 0.00 | 86 | 984.7 | |
| 20260509043736 | 21 | 0.0 | 1.6 | 0.00 | 0.00 | 0.00 | 85 | 984.2 | |
| 20260509042716 | 22 | 0.0 | 0.0 | 0.00 | 0.00 | 0.00 | 84 | 984.7 | |
| 20260509041716 | 22 | 117 | 0.0 | 1.6 | 0.00 | 0.00 | 0.00 | 83 | 984.5 |
| 20260509040716 | 22 | 153 | 1.6 | 3.2 | 0.00 | 0.00 | 0.00 | 83 | 984.7 |
| 20260509035716 | 22 | 0.0 | 1.6 | 0.00 | 0.00 | 0.00 | 82 | 985.0 | |
| 20260509034716 | 22 | 0.0 | 0.0 | 0.00 | 0.00 | 0.00 | 83 | 985.5 | |
| 20260509033716 | 22 | 0.0 | 0.0 | 0.00 | 0.00 | 0.00 | 83 | 985.3 | |
| 20260509032716 | 22 | 0.0 | 0.0 | 0.00 | 0.00 | 0.00 | 83 | 985.0 | |
| 20260509031716 | 22 | 0.0 | 0.0 | 0.00 | 0.00 | 0.00 | 83 | 985.0 | |
| 20260509030736 | 22 | 0.0 | 0.0 | 0.00 | 0.00 | 0.00 | 83 | 984.8 | |
| 20260509025716 | 22 | 0.0 | 0.0 | 0.00 | 0.00 | 0.00 | 83 | 984.6 | |
| 20260509024717 | 22 | 0.0 | 1.6 | 0.00 | 0.00 | 0.00 | 82 | 984.3 | |
| 20260509023716 | 22 | 0.0 | 0.0 | 0.00 | 0.00 | 0.00 | 82 | 983.9 | |
| 20260509022716 | 22 | 0.0 | 0.0 | 0.00 | 0.00 | 0.00 | 82 | 983.9 | |
| 20260509021716 | 22 | 0.0 | 0.0 | 0.00 | 0.00 | 0.00 | 81 | 983.7 | |
| 20260509020716 | 22 | 155 | 0.0 | 1.6 | 0.00 | 0.00 | 0.00 | 81 | 983.7 |
| 20260509015716 | 22 | 0.0 | 0.0 | 0.00 | 0.00 | 0.00 | 80 | 983.8 | |
| 20260509014716 | 22 | 0.0 | 3.2 | 0.00 | 0.00 | 0.00 | 79 | 983.7 | |
| 20260509013716 | 22 | 0.0 | 0.0 | 0.00 | 0.00 | 0.00 | 79 | 983.6 | |
| 20260509012716 | 22 | 0.0 | 0.0 | 0.00 | 0.00 | 0.00 | 78 | 983.6 | |
| 20260509011716 | 22 | 0.0 | 0.0 | 0.00 | 0.00 | 0.00 | 78 | 983.5 | |
| 20260509010716 | 22 | 0.0 | 0.0 | 0.00 | 0.00 | 0.00 | 77 | 983.4 | |
| 20260509005716 | 23 | 0.0 | 0.0 | 0.00 | 0.00 | 0.00 | 77 | 983.2 | |
| 20260509004716 | 23 | 175 | 0.0 | 1.6 | 0.00 | 0.00 | 0.00 | 76 | 983.0 |
| 20260509003736 | 23 | 0.0 | 1.6 | 0.00 | 0.00 | 0.00 | 75 | 982.9 | |
| 20260509002716 | 23 | 0.0 | 0.0 | 0.00 | 0.00 | 0.00 | 75 | 982.9 | |
| 20260509001716 | 23 | 157 | 0.0 | 4.8 | 0.00 | 0.00 | 0.00 | 74 | 982.9 |
| 20260509000716 | 23 | 0.0 | 0.0 | 0.00 | 0.00 | 0.00 | 73 | 983.0 | |
| 20260508235716 | 23 | 0.0 | 1.6 | 0.00 | 0.00 | 0.00 | 72 | 983.2 | |
| 20260508234716 | 23 | 0.0 | 1.6 | 0.00 | 0.00 | 0.00 | 71 | 983.3 | |
| 20260508233716 | 23 | 0.0 | 0.0 | 0.00 | 0.00 | 0.00 | 71 | 983.3 | |
| 20260508232736 | 24 | 0.0 | 3.2 | 0.00 | 0.00 | 0.00 | 69 | 983.4 | |
| 20260508231736 | 24 | 157 | 0.0 | 3.2 | 0.00 | 0.00 | 0.00 | 69 | 983.4 |
| 20260508230716 | 25 | 154 | 0.0 | 3.2 | 0.00 | 0.00 | 0.00 | 67 | 983.5 |
| 20260508225716 | 25 | 0.0 | 0.0 | 0.00 | 0.00 | 0.00 | 67 | 983.5 | |
| 20260508224716 | 25 | 207 | 0.0 | 4.8 | 0.00 | 0.00 | 0.00 | 66 | 983.6 |
| 20260508223716 | 25 | 0.0 | 0.0 | 0.00 | 0.00 | 0.00 | 66 | 983.5 | |
| 20260508222716 | 25 | 191 | 1.6 | 8.0 | 0.00 | 0.00 | 0.00 | 64 | 983.4 |
| 20260508221716 | 26 | 147 | 1.6 | 4.8 | 0.00 | 0.00 | 0.00 | 64 | 983.3 |
| 20260508220716 | 26 | 0.0 | 3.2 | 0.00 | 0.00 | 0.00 | 64 | 983.3 | |
| 20260508215736 | 25 | 227 | 0.0 | 3.2 | 0.00 | 0.00 | 0.00 | 66 | 983.3 |
| 20260508214716 | 26 | 152 | 0.0 | 1.6 | 0.00 | 0.00 | 0.00 | 64 | 983.3 |
| 20260508213716 | 25 | 162 | 0.0 | 1.6 | 0.00 | 0.00 | 0.00 | 66 | 983.4 |
| 20260508212737 | 25 | 0.0 | 0.0 | 0.00 | 0.00 | 0.00 | 67 | 983.4 | |
| 20260508211716 | 24 | 0.0 | 1.6 | 0.00 | 0.00 | 0.00 | 68 | 983.6 | |
| 20260508210716 | 23 | 191 | 1.6 | 6.4 | 0.00 | 0.00 | 0.00 | 69 | 984.0 |
| 20260508205716 | 23 | 142 | 1.6 | 3.2 | 0.00 | 0.00 | 0.00 | 69 | 984.4 |
| 20260508204736 | 23 | 142 | 0.0 | 1.6 | 0.00 | 0.00 | 0.00 | 68 | 984.8 |
| 20260508203716 | 23 | 211 | 1.6 | 3.2 | 0.00 | 0.00 | 0.00 | 68 | 985.4 |
| 20260508202736 | 24 | 207 | 1.6 | 3.2 | 0.00 | 0.00 | 0.00 | 67 | 985.5 |
| 20260508201716 | 25 | 237 | 1.6 | 8.0 | 0.00 | 0.00 | 0.00 | 65 | 985.3 |
| 20260508200716 | 25 | 242 | 0.0 | 4.8 | 0.00 | 0.00 | 0.00 | 62 | 985.4 |
| 20260508195716 | 26 | 0.0 | 1.6 | 0.00 | 0.00 | 0.00 | 62 | 985.4 | |
| 20260508194716 | 26 | 226 | 1.6 | 4.8 | 0.00 | 0.00 | 0.00 | 61 | 985.4 |
| 20260508193736 | 26 | 0.0 | 4.8 | 0.00 | 0.00 | 0.00 | 61 | 985.4 | |
| 20260508192716 | 26 | 212 | 1.6 | 3.2 | 0.00 | 0.00 | 0.00 | 60 | 985.5 |
| 20260508191716 | 26 | 222 | 4.8 | 8.0 | 0.00 | 0.00 | 0.00 | 60 | 985.6 |
| 20260508190716 | 26 | 236 | 1.6 | 8.0 | 0.00 | 0.00 | 0.00 | 60 | 985.6 |
| 20260508185716 | 26 | 234 | 3.2 | 8.0 | 0.00 | 0.00 | 0.00 | 60 | 985.6 |
| 20260508184716 | 26 | 199 | 1.6 | 3.2 | 0.00 | 0.00 | 0.00 | 58 | 985.8 |
| 20260508183716 | 26 | 0.0 | 3.2 | 0.00 | 0.00 | 0.00 | 57 | 985.8 | |
| 20260508182716 | 26 | 108 | 0.0 | 3.2 | 0.00 | 0.00 | 0.00 | 58 | 986.0 |
| 20260508181716 | 25 | 194 | 1.6 | 6.4 | 0.00 | 0.00 | 0.00 | 58 | 986.2 |
| 20260508180716 | 25 | 141 | 1.6 | 3.2 | 0.00 | 0.00 | 0.00 | 59 | 986.5 |
| 20260508175716 | 25 | 205 | 0.0 | 3.2 | 0.00 | 0.00 | 0.00 | 59 | 986.6 |
| 20260508174716 | 25 | 94 | 1.6 | 6.4 | 0.00 | 0.00 | 0.00 | 60 | 986.7 |
| 20260508173716 | 25 | 143 | 0.0 | 3.2 | 0.00 | 0.00 | 0.00 | 59 | 986.8 |
| 20260508172716 | 24 | 112 | 1.6 | 4.8 | 0.00 | 0.00 | 0.00 | 61 | 986.8 |
| 20260508171716 | 23 | 175 | 1.6 | 4.8 | 0.00 | 0.00 | 0.00 | 62 | 987.2 |
| 20260508170716 | 23 | 150 | 0.0 | 4.8 | 0.00 | 0.00 | 0.00 | 63 | 987.5 |
| 20260508165716 | 22 | 180 | 1.6 | 3.2 | 0.00 | 0.00 | 0.00 | 64 | 987.8 |
| 20260508164716 | 22 | 0.0 | 0.0 | 0.00 | 0.00 | 0.00 | 65 | 987.9 | |
| 20260508163716 | 22 | 155 | 1.6 | 4.8 | 0.00 | 0.00 | 0.00 | 64 | 988.2 |
| 20260508162716 | 22 | 170 | 0.0 | 1.6 | 0.00 | 0.00 | 0.00 | 66 | 988.3 |
| 20260508161736 | 21 | 0.0 | 1.6 | 0.00 | 0.00 | 0.00 | 67 | 988.5 | |
| 20260508160737 | 21 | 248 | 0.0 | 3.2 | 0.00 | 0.00 | 0.00 | 67 | 988.7 |
| 20260508155716 | 21 | 158 | 1.6 | 4.8 | 0.00 | 0.00 | 0.00 | 66 | 988.6 |
| 20260508154716 | 21 | 161 | 0.0 | 1.6 | 0.00 | 0.00 | 0.00 | 67 | 988.9 |
| 20260508153716 | 20 | 174 | 0.0 | 3.2 | 0.00 | 0.00 | 0.00 | 67 | 988.9 |
| 20260508152736 | 20 | 177 | 1.6 | 3.2 | 0.00 | 0.00 | 0.00 | 67 | 988.9 |
| 20260508151716 | 20 | 141 | 1.6 | 3.2 | 0.00 | 0.00 | 0.00 | 69 | 989.1 |
| 20260508150736 | 20 | 152 | 1.6 | 4.8 | 0.00 | 0.00 | 0.00 | 70 | 989.1 |
| 20260508145756 | 20 | 179 | 0.0 | 3.2 | 0.00 | 0.00 | 0.00 | 69 | 989.0 |
| 20260508144716 | 20 | 141 | 0.0 | 4.8 | 0.00 | 0.00 | 0.00 | 70 | 988.9 |
| 20260508143716 | 20 | 0.0 | 0.0 | 0.00 | 0.00 | 0.00 | 71 | 989.0 | |
| 20260508142716 | 20 | 144 | 1.6 | 6.4 | 0.00 | 0.00 | 0.00 | 72 | 989.2 |
| 20260508141716 | 19 | 145 | 1.6 | 3.2 | 0.00 | 0.00 | 0.00 | 76 | 989.3 |
| 20260508140736 | 19 | 167 | 1.6 | 4.8 | 0.00 | 0.00 | 0.00 | 76 | 989.3 |
| 20260508135717 | 18 | 0.0 | 1.6 | 0.00 | 0.00 | 0.00 | 79 | 989.3 | |
| 20260508134716 | 18 | 164 | 0.0 | 1.6 | 0.00 | 0.00 | 0.00 | 80 | 989.2 |
| 20260508133716 | 17 | 0.0 | 1.6 | 0.00 | 0.00 | 0.00 | 83 | 989.3 | |
| 20260508132716 | 17 | 68 | 0.0 | 1.6 | 0.00 | 0.00 | 0.00 | 86 | 989.3 |
| 20260508131716 | 17 | 0.0 | 0.0 | 0.00 | 0.00 | 0.00 | 86 | 989.3 | |
| 20260508130716 | 17 | 0.0 | 0.0 | 0.00 | 0.00 | 0.00 | 88 | 989.4 | |
| 20260508125716 | 16 | 0.0 | 0.0 | 0.00 | 0.00 | 0.00 | 89 | 989.5 | |
| 20260508124716 | 16 | 0.0 | 0.0 | 0.00 | 0.00 | 0.00 | 90 | 989.5 | |
| 20260508123716 | 16 | 0.0 | 0.0 | 0.00 | 0.00 | 0.00 | 91 | 989.6 | |
| 20260508122716 | 16 | 0.0 | 0.0 | 0.00 | 0.00 | 0.00 | 90 | 989.6 | |
| 20260508121717 | 16 | 0.0 | 0.0 | 0.00 | 0.00 | 0.00 | 90 | 989.6 | |
| 20260508120716 | 16 | 0.0 | 0.0 | 0.00 | 0.00 | 0.00 | 91 | 989.5 | |
| 20260508115716 | 16 | 0.0 | 0.0 | 0.00 | 0.00 | 0.00 | 89 | 989.7 | |
| 20260508114717 | 16 | 0.0 | 0.0 | 0.00 | 0.00 | 0.00 | 88 | 989.5 | |
| 20260508113717 | 16 | 0.0 | 0.0 | 0.00 | 0.00 | 0.00 | 85 | 989.7 | |
| 20260508112716 | 16 | 0.0 | 0.0 | 0.00 | 0.00 | 0.00 | 85 | 989.3 | |
| 20260508111716 | 17 | 0.0 | 0.0 | 0.00 | 0.00 | 0.00 | 85 | 989.0 | |
| 20260508110736 | 17 | 0.0 | 0.0 | 0.00 | 0.00 | 0.00 | 85 | 989.5 | |
| 20260508105716 | 17 | 0.0 | 0.0 | 0.00 | 0.00 | 0.00 | 86 | 989.9 | |
| 20260508104716 | 16 | 0.0 | 0.0 | 0.00 | 0.00 | 0.00 | 87 | 989.8 | |
| 20260508103716 | 16 | 0.0 | 0.0 | 0.00 | 0.00 | 0.00 | 89 | 989.5 | |
| 20260508102716 | 16 | 0.0 | 0.0 | 0.00 | 0.00 | 0.00 | 88 | 988.7 | |
| 20260508101716 | 16 | 0.0 | 0.0 | 0.00 | 0.00 | 0.00 | 88 | 988.6 | |
| 20260508100716 | 16 | 0.0 | 0.0 | 0.00 | 0.00 | 0.00 | 87 | 988.6 | |
| 20260508095716 | 16 | 0.0 | 0.0 | 0.00 | 0.00 | 0.00 | 86 | 988.6 | |
| 20260508094716 | 16 | 0.0 | 0.0 | 0.00 | 0.00 | 0.00 | 85 | 988.4 | |
| 20260508093716 | 16 | 0.0 | 0.0 | 0.00 | 0.00 | 0.00 | 86 | 988.7 | |
| 20260508092736 | 16 | 0.0 | 0.0 | 0.00 | 0.00 | 0.00 | 87 | 988.8 | |
| 20260508092015 | 16 | 0.0 | 0.0 | 0.00 | 0.00 | 0.00 | 86 | 988.7 | |
| 20260508091015 | 16 | 0.0 | 0.0 | 0.00 | 0.00 | 0.00 | 86 | 988.9 | |
| 20260508090015 | 16 | 0.0 | 0.0 | 0.00 | 0.00 | 0.00 | 86 | 988.9 | |
| 20260508085015 | 16 | 287 | 0.0 | 1.6 | 0.00 | 0.00 | 0.00 | 86 | 989.3 |
| 20260508084015 | 16 | 0.0 | 0.0 | 0.00 | 0.00 | 0.00 | 86 | 988.6 | |
| 20260508083015 | 16 | 78 | 1.6 | 4.8 | 0.00 | 0.00 | 0.00 | 87 | 988.7 |
| 20260508082015 | 16 | 0.0 | 0.0 | 0.00 | 0.00 | 0.00 | 86 | 989.4 | |
| 20260508081015 | 16 | 0.0 | 0.0 | 0.00 | 0.00 | 0.00 | 85 | 989.8 | |
| 20260508080036 | 16 | 0.0 | 0.0 | 0.00 | 0.00 | 0.00 | 85 | 989.9 | |
| 20260508075015 | 16 | 0.0 | 0.0 | 0.00 | 0.00 | 0.00 | 86 | 990.6 | |
| 20260508074015 | 16 | 0.0 | 0.0 | 0.00 | 0.00 | 0.00 | 88 | 990.2 | |
| 20260508073015 | 16 | 0.0 | 0.0 | 0.00 | 0.00 | 0.00 | 88 | 989.7 | |
| 20260508072015 | 16 | 0.0 | 0.0 | 0.00 | 0.00 | 0.00 | 88 | 989.8 | |
| 20260508071015 | 16 | 0.0 | 0.0 | 0.00 | 0.00 | 0.00 | 88 | 989.8 | |
| 20260508070015 | 16 | 0.0 | 0.0 | 0.00 | 0.00 | 0.00 | 87 | 989.9 |